| time (UTC) | temp C | wind direction | speed KPH | gust KPH | rain 1hr cm | rain 24hr cm | rain mn cm | humidity % | barometer mb |
| 20260506031557 | 6 | 54 | 1.6 | 8.0 | 0.00 | 0.00 | 0.00 | 81 | 1011.6 |
| 20260506031055 | 6 | 59 | 3.2 | 8.0 | 0.00 | 0.00 | 0.00 | 81 | 1011.7 |
| 20260506030553 | 6 | 55 | 3.2 | 9.7 | 0.00 | 0.00 | 0.00 | 80 | 1011.7 |
| 20260506030052 | 6 | 61 | 3.2 | 14.5 | 0.00 | 0.00 | 0.00 | 80 | 1011.8 |
| 20260506025551 | 6 | 51 | 4.8 | 14.5 | 0.00 | 0.00 | 0.00 | 80 | 1011.7 |
| 20260506025050 | 6 | 37 | 4.8 | 9.7 | 0.00 | 0.00 | 0.00 | 80 | 1011.7 |
| 20260506024550 | 6 | 40 | 3.2 | 9.7 | 0.00 | 0.00 | 0.00 | 80 | 1011.7 |
| 20260506024053 | 6 | 55 | 3.2 | 9.7 | 0.00 | 0.00 | 0.00 | 80 | 1011.8 |
| 20260506023549 | 6 | 77 | 3.2 | 9.7 | 0.00 | 0.00 | 0.00 | 80 | 1011.8 |
| 20260506023049 | 6 | 65 | 3.2 | 11.3 | 0.00 | 0.00 | 0.00 | 80 | 1011.8 |
| 20260506022548 | 7 | 65 | 3.2 | 11.3 | 0.00 | 0.00 | 0.00 | 80 | 1011.8 |
| 20260506022046 | 7 | 48 | 3.2 | 12.9 | 0.00 | 0.00 | 0.00 | 79 | 1011.7 |
| 20260506021555 | 7 | 69 | 4.8 | 12.9 | 0.00 | 0.00 | 0.00 | 80 | 1011.7 |
| 20260506021045 | 7 | 63 | 3.2 | 14.5 | 0.00 | 0.00 | 0.00 | 80 | 1011.7 |
| 20260506020544 | 7 | 19 | 6.4 | 14.5 | 0.00 | 0.00 | 0.00 | 80 | 1011.7 |
| 20260506020044 | 7 | 70 | 1.6 | 14.5 | 0.00 | 0.00 | 0.00 | 80 | 1011.7 |
| 20260506015543 | 7 | 58 | 3.2 | 8.0 | 0.00 | 0.00 | 0.00 | 81 | 1011.8 |
| 20260506015043 | 7 | 66 | 3.2 | 8.0 | 0.00 | 0.00 | 0.00 | 81 | 1011.9 |
| 20260506014542 | 7 | 44 | 3.2 | 11.3 | 0.00 | 0.00 | 0.00 | 81 | 1011.9 |
| 20260506014044 | 7 | 71 | 4.8 | 11.3 | 0.00 | 0.00 | 0.00 | 81 | 1011.8 |
| 20260506013540 | 7 | 54 | 3.2 | 8.0 | 0.00 | 0.00 | 0.00 | 81 | 1011.8 |
| 20260506013044 | 7 | 47 | 3.2 | 12.9 | 0.00 | 0.00 | 0.00 | 81 | 1011.8 |
| 20260506012542 | 7 | 60 | 4.8 | 16.1 | 0.00 | 0.00 | 0.00 | 81 | 1011.8 |
| 20260506012038 | 7 | 59 | 4.8 | 16.1 | 0.00 | 0.00 | 0.00 | 80 | 1011.9 |
| 20260506011545 | 7 | 67 | 4.8 | 16.1 | 0.00 | 0.00 | 0.00 | 80 | 1012.0 |
| 20260506011040 | 7 | 108 | 3.2 | 16.1 | 0.00 | 0.00 | 0.00 | 80 | 1012.0 |
| 20260506010537 | 7 | 38 | 4.8 | 14.5 | 0.00 | 0.00 | 0.00 | 80 | 1012.0 |
| 20260506010047 | 7 | 32 | 4.8 | 14.5 | 0.00 | 0.00 | 0.00 | 81 | 1012.0 |
| 20260506005537 | 7 | 49 | 4.8 | 16.1 | 0.00 | 0.00 | 0.00 | 81 | 1011.9 |
| 20260506005037 | 7 | 64 | 4.8 | 16.1 | 0.00 | 0.00 | 0.00 | 81 | 1011.9 |
| 20260506004535 | 7 | 63 | 4.8 | 14.5 | 0.00 | 0.00 | 0.00 | 81 | 1012.0 |
| 20260506004035 | 7 | 53 | 6.4 | 16.1 | 0.00 | 0.00 | 0.00 | 81 | 1012.0 |
| 20260506003535 | 7 | 55 | 6.4 | 16.1 | 0.00 | 0.00 | 0.00 | 81 | 1012.0 |
| 20260506003034 | 7 | 51 | 4.8 | 14.5 | 0.00 | 0.00 | 0.00 | 81 | 1012.0 |
| 20260506002533 | 7 | 40 | 6.4 | 16.1 | 0.00 | 0.00 | 0.00 | 80 | 1012.0 |
| 20260506002033 | 7 | 76 | 6.4 | 16.1 | 0.00 | 0.00 | 0.00 | 80 | 1012.0 |
| 20260506001532 | 7 | 40 | 4.8 | 9.7 | 0.00 | 0.00 | 0.00 | 80 | 1011.9 |
| 20260506001032 | 7 | 72 | 3.2 | 17.7 | 0.00 | 0.00 | 0.00 | 80 | 1012.0 |
| 20260506000532 | 8 | 66 | 6.4 | 17.7 | 0.00 | 0.00 | 0.00 | 80 | 1012.0 |
| 20260506000031 | 8 | 75 | 4.8 | 14.5 | 0.00 | 0.00 | 0.00 | 80 | 1012.0 |
| 20260505235529 | 8 | 67 | 3.2 | 12.9 | 0.00 | 0.00 | 0.00 | 79 | 1012.0 |
| 20260505235031 | 8 | 48 | 4.8 | 12.9 | 0.00 | 0.00 | 0.00 | 79 | 1012.1 |
| 20260505234541 | 8 | 65 | 3.2 | 9.7 | 0.00 | 0.00 | 0.00 | 78 | 1012.1 |
| 20260505234028 | 8 | 51 | 3.2 | 12.9 | 0.00 | 0.00 | 0.00 | 78 | 1012.1 |
| 20260505233526 | 8 | 71 | 4.8 | 16.1 | 0.00 | 0.00 | 0.00 | 77 | 1012.1 |
| 20260505233029 | 8 | 47 | 4.8 | 16.1 | 0.00 | 0.00 | 0.00 | 77 | 1012.0 |
| 20260505232525 | 8 | 38 | 6.4 | 14.5 | 0.00 | 0.00 | 0.00 | 76 | 1012.1 |
| 20260505232025 | 8 | 65 | 6.4 | 14.5 | 0.00 | 0.00 | 0.00 | 76 | 1012.0 |
| 20260505231528 | 8 | 63 | 3.2 | 16.1 | 0.00 | 0.00 | 0.00 | 76 | 1012.0 |
| 20260505231023 | 8 | 103 | 6.4 | 17.7 | 0.00 | 0.00 | 0.00 | 75 | 1012.0 |
| 20260505230522 | 8 | 22 | 6.4 | 17.7 | 0.00 | 0.00 | 0.00 | 75 | 1012.0 |
| 20260505230024 | 8 | 68 | 4.8 | 17.7 | 0.00 | 0.00 | 0.00 | 75 | 1012.1 |
| 20260505225522 | 8 | 59 | 4.8 | 16.1 | 0.00 | 0.00 | 0.00 | 76 | 1012.0 |
| 20260505225022 | 8 | 51 | 4.8 | 16.1 | 0.00 | 0.00 | 0.00 | 75 | 1012.1 |
| 20260505224527 | 8 | 86 | 4.8 | 16.1 | 0.00 | 0.00 | 0.00 | 76 | 1012.1 |
| 20260505224021 | 8 | 38 | 6.4 | 17.7 | 0.00 | 0.00 | 0.00 | 76 | 1012.0 |
| 20260505223520 | 8 | 38 | 8.0 | 24.1 | 0.00 | 0.00 | 0.00 | 76 | 1012.1 |
| 20260505223019 | 9 | 17 | 9.7 | 24.1 | 0.00 | 0.00 | 0.00 | 77 | 1012.0 |
| 20260505222518 | 9 | 53 | 6.4 | 17.7 | 0.00 | 0.00 | 0.00 | 79 | 1012.0 |
| 20260505222018 | 9 | 51 | 9.7 | 17.7 | 0.00 | 0.00 | 0.00 | 79 | 1012.0 |
| 20260505221518 | 9 | 64 | 6.4 | 17.7 | 0.00 | 0.00 | 0.00 | 79 | 1011.9 |
| 20260505221017 | 9 | 55 | 8.0 | 14.5 | 0.00 | 0.00 | 0.00 | 79 | 1011.9 |
| 20260505220518 | 9 | 40 | 6.4 | 16.1 | 0.00 | 0.00 | 0.00 | 79 | 1011.8 |
| 20260505220018 | 10 | 39 | 4.8 | 16.1 | 0.00 | 0.00 | 0.00 | 79 | 1011.9 |
| 20260505215518 | 10 | 66 | 8.0 | 16.1 | 0.00 | 0.00 | 0.00 | 79 | 1011.9 |
| 20260505215018 | 10 | 67 | 4.8 | 16.1 | 0.00 | 0.00 | 0.00 | 78 | 1011.8 |
| 20260505214518 | 10 | 32 | 8.0 | 20.9 | 0.00 | 0.00 | 0.00 | 78 | 1011.8 |
| 20260505214018 | 10 | 65 | 6.4 | 20.9 | 0.00 | 0.00 | 0.00 | 78 | 1011.8 |
| 20260505213517 | 10 | 42 | 6.4 | 16.1 | 0.00 | 0.00 | 0.00 | 79 | 1011.9 |
| 20260505213019 | 10 | 83 | 4.8 | 12.9 | 0.00 | 0.00 | 0.00 | 79 | 1011.9 |
| 20260505212520 | 10 | 53 | 4.8 | 14.5 | 0.00 | 0.00 | 0.00 | 79 | 1011.8 |
| 20260505212016 | 10 | 74 | 4.8 | 14.5 | 0.00 | 0.00 | 0.00 | 79 | 1011.7 |
| 20260505211533 | 10 | 53 | 4.8 | 17.7 | 0.00 | 0.00 | 0.00 | 78 | 1011.7 |
| 20260505211016 | 10 | 75 | 6.4 | 17.7 | 0.00 | 0.00 | 0.00 | 78 | 1011.7 |
| 20260505210516 | 10 | 57 | 4.8 | 16.1 | 0.00 | 0.00 | 0.00 | 78 | 1011.6 |
| 20260505210016 | 10 | 60 | 6.4 | 16.1 | 0.00 | 0.00 | 0.00 | 78 | 1011.6 |
| 20260505205517 | 10 | 38 | 6.4 | 16.1 | 0.00 | 0.00 | 0.00 | 78 | 1011.5 |
| 20260505205015 | 11 | 103 | 6.4 | 19.3 | 0.00 | 0.00 | 0.00 | 78 | 1011.5 |
| 20260505204515 | 11 | 74 | 8.0 | 19.3 | 0.00 | 0.00 | 0.00 | 77 | 1011.5 |
| 20260505204015 | 11 | 36 | 4.8 | 17.7 | 0.00 | 0.00 | 0.00 | 76 | 1011.4 |
| 20260505203515 | 11 | 52 | 6.4 | 17.7 | 0.00 | 0.00 | 0.00 | 75 | 1011.4 |
| 20260505203015 | 11 | 44 | 8.0 | 17.7 | 0.00 | 0.00 | 0.00 | 72 | 1011.4 |
| 20260505202514 | 11 | 63 | 6.4 | 17.7 | 0.00 | 0.00 | 0.00 | 70 | 1011.2 |
| 20260505202014 | 11 | 53 | 3.2 | 16.1 | 0.00 | 0.00 | 0.00 | 68 | 1011.2 |
| 20260505201514 | 11 | 57 | 6.4 | 14.5 | 0.00 | 0.00 | 0.00 | 68 | 1011.2 |
| 20260505201018 | 11 | 56 | 1.6 | 8.0 | 0.00 | 0.00 | 0.00 | 68 | 1011.1 |
| 20260505200514 | 11 | 40 | 1.6 | 6.4 | 0.00 | 0.00 | 0.00 | 68 | 1011.0 |
| 20260505200014 | 11 | 55 | 0.0 | 6.4 | 0.00 | 0.00 | 0.00 | 67 | 1011.0 |
| 20260505195513 | 12 | 63 | 1.6 | 12.9 | 0.00 | 0.00 | 0.00 | 67 | 1010.9 |
| 20260505195013 | 12 | 65 | 1.6 | 12.9 | 0.00 | 0.00 | 0.00 | 67 | 1010.9 |
| 20260505194514 | 12 | 44 | 3.2 | 12.9 | 0.00 | 0.00 | 0.00 | 66 | 1010.8 |
| 20260505194016 | 12 | 42 | 4.8 | 11.3 | 0.00 | 0.00 | 0.00 | 65 | 1010.8 |
| 20260505193513 | 12 | 52 | 3.2 | 11.3 | 0.00 | 0.00 | 0.00 | 65 | 1010.7 |
| 20260505193014 | 12 | 75 | 3.2 | 11.3 | 0.00 | 0.00 | 0.00 | 64 | 1010.7 |
| 20260505192512 | 12 | 44 | 3.2 | 9.7 | 0.00 | 0.00 | 0.00 | 64 | 1010.7 |
| 20260505192012 | 12 | 64 | 1.6 | 9.7 | 0.00 | 0.00 | 0.00 | 64 | 1010.6 |
| 20260505191512 | 12 | 59 | 3.2 | 12.9 | 0.00 | 0.00 | 0.00 | 64 | 1010.6 |
| 20260505191011 | 12 | 78 | 3.2 | 12.9 | 0.00 | 0.00 | 0.00 | 64 | 1010.6 |
| 20260505190511 | 12 | 55 | 3.2 | 11.3 | 0.00 | 0.00 | 0.00 | 64 | 1010.5 |
| 20260505190013 | 12 | 53 | 3.2 | 11.3 | 0.00 | 0.00 | 0.00 | 64 | 1010.6 |
| 20260505185511 | 12 | 54 | 3.2 | 9.7 | 0.00 | 0.00 | 0.00 | 64 | 1010.5 |
| 20260505185011 | 12 | 74 | 3.2 | 9.7 | 0.00 | 0.00 | 0.00 | 64 | 1010.5 |
| 20260505184522 | 12 | 74 | 3.2 | 8.0 | 0.00 | 0.00 | 0.00 | 64 | 1010.5 |
| 20260505184014 | 12 | 11 | 1.6 | 9.7 | 0.00 | 0.00 | 0.00 | 64 | 1010.4 |
| 20260505183511 | 12 | 75 | 3.2 | 14.5 | 0.00 | 0.00 | 0.00 | 64 | 1010.4 |
| 20260505183010 | 12 | 66 | 3.2 | 14.5 | 0.00 | 0.00 | 0.00 | 63 | 1010.4 |
| 20260505182510 | 12 | 49 | 4.8 | 14.5 | 0.00 | 0.00 | 0.00 | 63 | 1010.4 |
| 20260505182010 | 12 | 40 | 3.2 | 14.5 | 0.00 | 0.00 | 0.00 | 63 | 1010.4 |
| 20260505181510 | 12 | 86 | 6.4 | 16.1 | 0.00 | 0.00 | 0.00 | 63 | 1010.4 |
| 20260505181009 | 13 | 67 | 4.8 | 16.1 | 0.00 | 0.00 | 0.00 | 63 | 1010.4 |
| 20260505180509 | 13 | 48 | 4.8 | 12.9 | 0.00 | 0.00 | 0.00 | 63 | 1010.4 |
| 20260505180009 | 13 | 74 | 4.8 | 16.1 | 0.00 | 0.00 | 0.00 | 64 | 1010.4 |
| 20260505175508 | 13 | 65 | 3.2 | 17.7 | 0.00 | 0.00 | 0.00 | 64 | 1010.4 |
| 20260505175008 | 13 | 56 | 8.0 | 17.7 | 0.00 | 0.00 | 0.00 | 63 | 1010.3 |
| 20260505174508 | 13 | 30 | 6.4 | 16.1 | 0.00 | 0.00 | 0.00 | 63 | 1010.4 |
| 20260505174008 | 13 | 60 | 6.4 | 16.1 | 0.00 | 0.00 | 0.00 | 63 | 1010.4 |
| 20260505173508 | 13 | 40 | 4.8 | 14.5 | 0.00 | 0.00 | 0.00 | 62 | 1010.5 |
| 20260505173007 | 13 | 83 | 6.4 | 14.5 | 0.00 | 0.00 | 0.00 | 62 | 1010.5 |
| 20260505172507 | 13 | 60 | 3.2 | 14.5 | 0.00 | 0.00 | 0.00 | 63 | 1010.5 |
| 20260505172007 | 13 | 71 | 3.2 | 12.9 | 0.00 | 0.00 | 0.00 | 63 | 1010.5 |
| 20260505171508 | 13 | 63 | 1.6 | 16.1 | 0.00 | 0.00 | 0.00 | 63 | 1010.5 |
| 20260505171007 | 13 | 66 | 3.2 | 16.1 | 0.00 | 0.00 | 0.00 | 63 | 1010.5 |
| 20260505170506 | 13 | 39 | 1.6 | 16.1 | 0.00 | 0.00 | 0.00 | 63 | 1010.5 |
| 20260505170011 | 13 | 68 | 4.8 | 16.1 | 0.00 | 0.00 | 0.00 | 63 | 1010.6 |
| 20260505165506 | 13 | 60 | 3.2 | 9.7 | 0.00 | 0.00 | 0.00 | 64 | 1010.5 |
| 20260505165007 | 13 | 63 | 6.4 | 12.9 | 0.00 | 0.00 | 0.00 | 63 | 1010.6 |
| 20260505164507 | 13 | 22 | 3.2 | 12.9 | 0.00 | 0.00 | 0.00 | 63 | 1010.6 |
| 20260505164006 | 13 | 61 | 6.4 | 14.5 | 0.00 | 0.00 | 0.00 | 62 | 1010.6 |
| 20260505163506 | 13 | 59 | 3.2 | 16.1 | 0.00 | 0.00 | 0.00 | 62 | 1010.5 |
| 20260505163006 | 13 | 54 | 4.8 | 16.1 | 0.00 | 0.00 | 0.00 | 63 | 1010.5 |
| 20260505162508 | 13 | 39 | 6.4 | 16.1 | 0.00 | 0.00 | 0.00 | 62 | 1010.5 |
| 20260505162004 | 14 | 38 | 3.2 | 17.7 | 0.00 | 0.00 | 0.00 | 62 | 1010.5 |
| 20260505161504 | 14 | 51 | 6.4 | 17.7 | 0.00 | 0.00 | 0.00 | 62 | 1010.4 |
| 20260505161004 | 14 | 82 | 8.0 | 16.1 | 0.00 | 0.00 | 0.00 | 62 | 1010.4 |
| 20260505160506 | 14 | 57 | 3.2 | 16.1 | 0.00 | 0.00 | 0.00 | 63 | 1010.5 |
| 20260505153100 | 13 | 267 | 3.2 | 12.9 | 0.00 | 0.00 | 0.00 | 62 | 1010.6 |
| 20260505152604 | 13 | 158 | 1.6 | 9.7 | 0.00 | 0.00 | 0.00 | 63 | 1010.7 |
| 20260505152059 | 13 | 288 | 1.6 | 14.5 | 0.00 | 0.00 | 0.00 | 64 | 1010.7 |
| 20260505151559 | 13 | 92 | 3.2 | 20.9 | 0.00 | 0.00 | 0.00 | 63 | 1010.6 |
| 20260505151059 | 13 | 11 | 1.6 | 14.5 | 0.00 | 0.00 | 0.00 | 63 | 1010.7 |
| 20260505150559 | 13 | 58 | 6.4 | 12.9 | 0.00 | 0.00 | 0.00 | 63 | 1010.7 |
| 20260505140555 | 13 | 61 | 6.4 | 16.1 | 0.00 | 0.00 | 0.00 | 64 | 1010.9 |
| 20260505140109 | 13 | 84 | 1.6 | 9.7 | 0.00 | 0.00 | 0.00 | 64 | 1010.9 |
| 20260505124554 | 15 | 95 | 0.0 | 11.3 | 0.00 | 0.00 | 0.00 | 60 | 1010.9 |
| 20260505124052 | 15 | 48 | 1.6 | 11.3 | 0.00 | 0.00 | 0.00 | 60 | 1010.9 |
| 20260505123552 | 15 | 30 | 0.0 | 14.5 | 0.00 | 0.00 | 0.00 | 60 | 1010.8 |
| 20260505123054 | 15 | 55 | 3.2 | 14.5 | 0.00 | 0.00 | 0.00 | 60 | 1010.8 |
| 20260505122551 | 15 | 41 | 0.0 | 8.0 | 0.00 | 0.00 | 0.00 | 60 | 1010.8 |
| 20260505122050 | 14 | 195 | 1.6 | 16.1 | 0.00 | 0.00 | 0.00 | 60 | 1010.8 |
| 20260505121551 | 15 | 58 | 1.6 | 16.1 | 0.00 | 0.00 | 0.00 | 59 | 1010.9 |
| 20260505121050 | 15 | 290 | 0.0 | 4.8 | 0.00 | 0.00 | 0.00 | 61 | 1010.9 |
| 20260505120548 | 15 | 244 | 0.0 | 14.5 | 0.00 | 0.00 | 0.00 | 60 | 1010.9 |
| 20260505120100 | 15 | 49 | 1.6 | 14.5 | 0.00 | 0.00 | 0.00 | 62 | 1011.0 |
| 20260505115547 | 14 | 44 | 0.0 | 12.9 | 0.00 | 0.00 | 0.00 | 64 | 1010.9 |
| 20260505115048 | 14 | 48 | 0.0 | 6.4 | 0.00 | 0.00 | 0.00 | 62 | 1011.0 |
| 20260505114547 | 14 | 325 | 0.0 | 8.0 | 0.00 | 0.00 | 0.00 | 62 | 1010.9 |
| 20260505114046 | 14 | 265 | 0.0 | 9.7 | 0.00 | 0.00 | 0.00 | 63 | 1011.0 |
| 20260505113547 | 14 | 17 | 3.2 | 9.7 | 0.00 | 0.00 | 0.00 | 64 | 1011.0 |
| 20260505113049 | 14 | 81 | 0.0 | 8.0 | 0.00 | 0.00 | 0.00 | 63 | 1011.1 |
| 20260505112647 | 14 | 62 | 0.0 | 8.0 | 0.00 | 0.00 | 0.00 | 63 | 1011.1 |
| 20260505112044 | 14 | 204 | 3.2 | 14.5 | 0.00 | 0.00 | 0.00 | 62 | 1011.2 |
| 20260505111547 | 15 | 57 | 3.2 | 14.5 | 0.00 | 0.00 | 0.00 | 62 | 1011.1 |
| 20260505111045 | 14 | 178 | 0.0 | 8.0 | 0.00 | 0.00 | 0.00 | 62 | 1011.2 |
| 20260505110541 | 14 | 303 | 0.0 | 11.3 | 0.00 | 0.00 | 0.00 | 62 | 1011.1 |
| 20260505102033 | 13 | 267 | 0.0 | 16.1 | 0.00 | 0.00 | 0.00 | 64 | 1011.6 |
| 20260505101534 | 12 | 39 | 1.6 | 16.1 | 0.00 | 0.00 | 0.00 | 66 | 1011.6 |
| 20260505101029 | 12 | 51 | 1.6 | 12.9 | 0.00 | 0.00 | 0.00 | 66 | 1011.7 |
| 20260505100529 | 12 | 13 | 0.0 | 6.4 | 0.00 | 0.00 | 0.00 | 69 | 1011.6 |
| 20260505100027 | 12 | 321 | 1.6 | 9.7 | 0.00 | 0.00 | 0.00 | 71 | 1011.7 |
| 20260505095524 | 12 | 63 | 1.6 | 9.7 | 0.00 | 0.00 | 0.00 | 70 | 1011.7 |
| 20260505095023 | 12 | 248 | 0.0 | 14.5 | 0.00 | 0.00 | 0.00 | 70 | 1011.7 |
| 20260505094526 | 12 | 335 | 3.2 | 14.5 | 0.00 | 0.00 | 0.00 | 71 | 1011.7 |
| 20260505094020 | 11 | 47 | 1.6 | 14.5 | 0.00 | 0.00 | 0.00 | 73 | 1011.7 |
| 20260505093519 | 11 | 55 | 3.2 | 14.5 | 0.00 | 0.00 | 0.00 | 75 | 1011.8 |
| 20260505093018 | 11 | 75 | 0.0 | 9.7 | 0.00 | 0.00 | 0.00 | 76 | 1011.8 |
| 20260505092518 | 11 | 171 | 0.0 | 9.7 | 0.00 | 0.00 | 0.00 | 75 | 1011.8 |
| 20260505092018 | 11 | 315 | 0.0 | 4.8 | 0.00 | 0.00 | 0.00 | 75 | 1011.7 |
| 20260505091517 | 11 | 209 | 0.0 | 6.4 | 0.00 | 0.00 | 0.00 | 76 | 1011.8 |
| 20260505091016 | 11 | 17 | 0.0 | 8.0 | 0.00 | 0.00 | 0.00 | 77 | 1011.8 |
| 20260505090515 | 11 | 333 | 1.6 | 8.0 | 0.00 | 0.00 | 0.00 | 77 | 1011.9 |
| 20260505090017 | 11 | 355 | 1.6 | 12.9 | 0.00 | 0.00 | 0.00 | 78 | 1011.9 |
| 20260505085513 | 11 | 38 | 0.0 | 12.9 | 0.00 | 0.00 | 0.00 | 77 | 1012.0 |
| 20260505085013 | 11 | 44 | 3.2 | 8.0 | 0.00 | 0.00 | 0.00 | 76 | 1012.0 |
| 20260505084525 | 11 | 101 | 0.0 | 14.5 | 0.00 | 0.00 | 0.00 | 77 | 1012.1 |
| 20260505084012 | 11 | 327 | 1.6 | 14.5 | 0.00 | 0.00 | 0.00 | 77 | 1012.0 |
| 20260505083511 | 11 | 93 | 1.6 | 16.1 | 0.00 | 0.00 | 0.00 | 76 | 1012.0 |
| 20260505083012 | 11 | 84 | 3.2 | 9.7 | 0.00 | 0.00 | 0.00 | 75 | 1012.0 |
| 20260505082511 | 11 | 157 | 1.6 | 16.1 | 0.00 | 0.00 | 0.00 | 76 | 1012.0 |
| 20260505082010 | 11 | 80 | 4.8 | 16.1 | 0.00 | 0.00 | 0.00 | 78 | 1011.9 |
| 20260505081509 | 10 | 348 | 1.6 | 16.1 | 0.00 | 0.00 | 0.00 | 79 | 1011.9 |
| 20260505081008 | 10 | 9 | 4.8 | 16.1 | 0.00 | 0.00 | 0.00 | 81 | 1012.0 |
| 20260505080510 | 10 | 53 | 1.6 | 14.5 | 0.00 | 0.00 | 0.00 | 82 | 1012.0 |
| 20260505080017 | 10 | 67 | 4.8 | 11.3 | 0.00 | 0.00 | 0.00 | 82 | 1012.1 |
| 20260505075504 | 10 | 67 | 1.6 | 9.7 | 0.00 | 0.00 | 0.00 | 82 | 1012.0 |
| 20260505075004 | 10 | 43 | 3.2 | 9.7 | 0.00 | 0.00 | 0.00 | 83 | 1012.0 |
| 20260505074504 | 9 | 344 | 0.0 | 11.3 | 0.00 | 0.00 | 0.00 | 83 | 1012.1 |
| 20260505074003 | 9 | 259 | 3.2 | 11.3 | 0.00 | 0.00 | 0.00 | 82 | 1012.1 |
| 20260505073503 | 10 | 49 | 3.2 | 12.9 | 0.00 | 0.00 | 0.00 | 82 | 1012.1 |
| 20260505073002 | 9 | 314 | 3.2 | 11.3 | 0.00 | 0.00 | 0.00 | 83 | 1012.1 |
| 20260505072502 | 9 | 31 | 4.8 | 12.9 | 0.00 | 0.00 | 0.00 | 83 | 1012.1 |
| 20260505072102 | 9 | 65 | 4.8 | 14.5 | 0.00 | 0.00 | 0.00 | 83 | 1012.2 |
| 20260505071601 | 8 | 94 | 3.2 | 16.1 | 0.00 | 0.00 | 0.00 | 84 | 1012.1 |
| 20260505071058 | 8 | 61 | 3.2 | 16.1 | 0.00 | 0.00 | 0.00 | 84 | 1012.1 |
| 20260505070559 | 8 | 77 | 3.2 | 14.5 | 0.00 | 0.00 | 0.00 | 84 | 1012.1 |
| 20260505070104 | 8 | 86 | 4.8 | 14.5 | 0.00 | 0.00 | 0.00 | 84 | 1012.2 |
| 20260505065553 | 8 | 223 | 3.2 | 11.3 | 0.00 | 0.00 | 0.00 | 85 | 1012.1 |
| 20260505065051 | 8 | 144 | 1.6 | 11.3 | 0.00 | 0.00 | 0.00 | 85 | 1012.1 |
| 20260505064556 | 8 | 263 | 0.0 | 8.0 | 0.00 | 0.00 | 0.00 | 86 | 1012.1 |
| 20260505064049 | 8 | 55 | 1.6 | 11.3 | 0.00 | 0.00 | 0.00 | 86 | 1012.1 |
| 20260505063550 | 8 | 35 | 3.2 | 14.5 | 0.00 | 0.00 | 0.00 | 86 | 1012.1 |
| 20260505063048 | 8 | 47 | 3.2 | 11.3 | 0.00 | 0.00 | 0.00 | 87 | 1012.1 |
| 20260505062548 | 8 | 56 | 1.6 | 11.3 | 0.00 | 0.00 | 0.00 | 87 | 1012.1 |
| 20260505062047 | 7 | 117 | 1.6 | 9.7 | 0.00 | 0.00 | 0.00 | 87 | 1012.1 |
| 20260505061610 | 7 | 300 | 1.6 | 4.8 | 0.00 | 0.00 | 0.00 | 87 | 1012.1 |
| 20260505061047 | 7 | 294 | 0.0 | 4.8 | 0.00 | 0.00 | 0.00 | 87 | 1012.2 |
| 20260505060547 | 7 | 346 | 0.0 | 6.4 | 0.00 | 0.00 | 0.00 | 87 | 1012.3 |
| 20260505060053 | 7 | 315 | 0.0 | 6.4 | 0.00 | 0.00 | 0.00 | 88 | 1012.3 |
| 20260505055546 | 7 | 75 | 0.0 | 4.8 | 0.00 | 0.00 | 0.00 | 88 | 1012.2 |
| 20260505055046 | 7 | 74 | 1.6 | 4.8 | 0.00 | 0.00 | 0.00 | 88 | 1012.2 |
| 20260505054548 | 7 | 182 | 0.0 | 4.8 | 0.00 | 0.00 | 0.00 | 89 | 1012.2 |
| 20260505054045 | 7 | 207 | 0.0 | 4.8 | 0.00 | 0.00 | 0.00 | 90 | 1012.1 |
| 20260505053545 | 7 | 70 | 0.0 | 3.2 | 0.00 | 0.00 | 0.00 | 90 | 1012.2 |
| 20260505053043 | 7 | 59 | 0.0 | 3.2 | 0.00 | 0.00 | 0.00 | 91 | 1012.1 |
| 20260505052546 | 7 | 108 | 0.0 | 0.0 | 0.00 | 0.00 | 0.00 | 91 | 1012.1 |
| 20260505052042 | 7 | 59 | 0.0 | 0.0 | 0.00 | 0.00 | 0.00 | 91 | 1012.2 |
| 20260505051541 | 7 | 90 | 0.0 | 0.0 | 0.00 | 0.00 | 0.00 | 91 | 1012.2 |
| 20260505051041 | 7 | 302 | 0.0 | 0.0 | 0.00 | 0.00 | 0.00 | 91 | 1012.2 |
| 20260505050540 | 7 | 233 | 0.0 | 0.0 | 0.00 | 0.00 | 0.00 | 92 | 1012.2 |
| 20260505041535 | 7 | 321 | 0.0 | 0.0 | 0.00 | 0.00 | 0.00 | 93 | 1012.0 |
| 20260505041036 | 7 | 355 | 0.0 | 0.0 | 0.00 | 0.00 | 0.00 | 93 | 1011.9 |
| 20260505040534 | 7 | 266 | 0.0 | 0.0 | 0.00 | 0.00 | 0.00 | 93 | 1011.9 |
| 20260505040043 | 7 | 266 | 0.0 | 0.0 | 0.00 | 0.00 | 0.00 | 93 | 1011.9 |
| 20260505035534 | 7 | 266 | 0.0 | 0.0 | 0.00 | 0.00 | 0.00 | 93 | 1011.8 |
| 20260505035035 | 7 | 266 | 0.0 | 0.0 | 0.00 | 0.00 | 0.00 | 93 | 1011.9 |
| 20260505034539 | 7 | 266 | 0.0 | 0.0 | 0.00 | 0.00 | 0.00 | 93 | 1012.0 |
| 20260505034033 | 7 | 266 | 0.0 | 0.0 | 0.00 | 0.00 | 0.00 | 93 | 1012.0 |
| 20260505033533 | 7 | 266 | 0.0 | 0.0 | 0.00 | 0.00 | 0.00 | 93 | 1012.1 |
| 20260505033033 | 7 | 266 | 0.0 | 0.0 | 0.00 | 0.00 | 0.00 | 93 | 1012.0 |
| 20260505032534 | 7 | 266 | 0.0 | 0.0 | 0.00 | 0.00 | 0.00 | 93 | 1012.0 |
| 20260505032036 | 8 | 267 | 0.0 | 0.0 | 0.00 | 0.00 | 0.00 | 93 | 1012.0 |